Regional Weather Roundup
Issued by NWS

Home | Current Version | Previous Version | Graphics & Text | Print | Product List | Glossary On
Versions: 1 2 3 4 5 6 7 8 9 10 11 12 13 14 15 16 17 18 19 20 21 22 23 24 25 26 27 28 29 30 31 32 33 34 35 36 37 38 39 40 41 42 43 44 45 46 47 48 49 50
000
ASUS45 KBOU 232307
RWRCO

WEATHER ROUNDUP FOR COLORADO
NATIONAL WEATHER SERVICE DENVER/BOULDER CO
500 PM MDT SAT SEP 23 2017

NOTE: "FAIR" INDICATES FEW OR NO CLOUDS BELOW 12000 FEET WITH NO
SIGNIFICANT WEATHER AND/OR OBSTRUCTIONS TO VISIBILITY.

COZ001>005-013-030-031-240000-
...NORTHWEST COLORADO...

CITY           SKY/WX    TMP DP  RH WIND       PRES   REMARKS
CRAIG          PTSUNNY   53  40  61 E10       29.88F
HAYDEN         FAIR      50  40  68 E14       29.92S
MEEKER         CLOUDY    56  38  50 W5        29.87R
RABBIT EARS PA FOG       32  32 100 S8        30.06F VSB 3/4 WCI  25
STEAMBOAT SPGS CLOUDY    46  41  85 NW6       29.91F
WALDEN         CLOUDY    39  36  87 SE13      30.03S
$$

COZ006>008-011-240000-
...WEST CENTRAL VALLEYS...

CITY           SKY/WX    TMP DP  RH WIND       PRES   REMARKS
GRAND JUNCTION LGT RAIN  50  49  96 N9        29.86R
MONTROSE       FAIR      61  43  51 SE13      29.84F
EAGLE          CLOUDY    48  43  82 NE14      29.93F
RIFLE          FAIR      60  44  55 E13       29.84F
DELTA          NOT AVBL
NUCLA          PTSUNNY   54  37  54 N13       29.88S
$$

COZ017>023-064>068-240000-
...SOUTHWEST COLORADO...

CITY           SKY/WX    TMP DP  RH WIND       PRES   REMARKS
DURANGO        LGT RAIN  50  49  96 E10       29.91S FOG
CORTEZ         FAIR      63  41  44 VRB6      29.82F
PAGOSA SPRINGS CLOUDY    47  46  95 E5        29.97F
TELLURIDE      FAIR      47  33  57 SE9G20    29.99S
WOLF CREEK PAS SNOW      30  30 100 S14G20    30.15S VSB 1/4 WCI  20
$$

COZ009-010-012-014-032>034-037-058>063-240000-
...CENTRAL COLORADO...

CITY           SKY/WX    TMP DP  RH WIND       PRES   REMARKS
ASPEN          LGT RAIN  42  39  89 SE9       29.98F
BUENA VISTA    HVY RAIN  50  44  79 SW5       29.96R
COPPER MTN     LGT SNOW  34  32  93 MISG      30.12F VSB 3/4
BERTHOUD PASS  HVY SNOW  27  18  69 N8        30.15S VSB<1/4 WCI  18
COTTONWOOD PAS CLOUDY    46  43  87 SW18G28   30.04R
GUNNISON       FAIR      49  39  68 N9        29.96S
KREMMLING      DRIZZLE   50  43  76 E5        30.01S
LEADVILLE      LGT RAIN  37  35  92 N7        30.03R FOG
MONARCH PASS   LGT SNOW  34  34 100 SW33G39   30.21S WCI  19
SALIDA         CLOUDY    54  50  86 SW6       30.01R
SUNLIGHT       CLOUDY    36  34  93 S10G24    30.06R
WILKERSON PASS TSTM      41  39  93 SW6       30.14S VSB<1/4
$$

COZ069>075-240000-
...SAN LUIS VALLEY/SANGRE DE CRISTO MOUNTAINS...

CITY           SKY/WX    TMP DP  RH WIND       PRES   REMARKS
ALAMOSA        LGT RAIN  54  48  80 SW7       29.93R
DEL NORTE      CLOUDY    48  39  70 W18G28    29.96F
LA VETA PASS   PTSUNNY   50  39  66 SW23      30.14R
SAGUACHE       LGT RAIN  54  41  62 CALM      29.95S
$$

COZ035-036-038>040-240000-
...NORTHERN COLORADO FRONT RANGE...

CITY           SKY/WX    TMP DP  RH WIND       PRES   REMARKS
DENVER INTL AP LGT RAIN  48  44  86 N17       29.96R FOG
DMNS CITY PARK   N/A     48  46  94 N8G20     29.96R
AURORA         LGT RAIN  49  44  83 N18       29.96R
FRONT RANGE AP DRIZZLE   50  46  87 N16G24    29.95R
ERIE MUNI ARPT HVY RAIN  48  46  91 N7        30.03R
BOULDER MUN AP HVY RAIN  46  46 100 N8        29.97S
CENTENNIAL     LGT RAIN  48  46  93 N15       29.95R FOG
BROOMFIELD     HVY RAIN  48  46  93 N14       29.98R VSB 1
FORT COLLINS   RAIN      48  46  93 NE9       29.99R
LONGMONT       HVY RAIN  50  47  89 N6        30.00S
$$

COZ041-046-047-076>085-087-088-240000-
...PIKES PEAK/PALMER DIVIDE AND SOUTHERN FOOTHILLS...

CITY           SKY/WX    TMP DP  RH WIND       PRES   REMARKS
COLO. SPRINGS  CLOUDY    58  56  93 SE22      29.89R
A. F. ACADEMY  LGT RAIN  55  55  99 S9        29.89S
SCHRIEVER AFB  CLOUDY    56  55  97 SE17G31   29.90R
CHEYENNE MTN   LGT RAIN  53  52  97 S14G24    29.86S
ELLICOTT         N/A    N/A N/A N/A SE22G30   29.88R
FALCON         CLOUDY    54  54  99 SE22G29   29.93R FOG
FORT CARSON    CLOUDY    58  57  97 SE16      29.85F
LIMON            N/A    N/A N/A N/A MISG      29.89F
MONUMENT HILL  CLOUDY    52  52 100 S18G25    29.94F
CANON CITY     CLOUDY    61  57  88 S12       29.84R
WALSENBURG     NOT AVBL
TRINIDAD       FAIR      64  53  67 S22G29    29.86F
$$

COZ042>045-048>051-090-091-240000-
...NORTHEAST COLORADO...

CITY           SKY/WX    TMP DP  RH WIND       PRES   REMARKS
GREELEY ARPT   LGT RAIN  49  45  86 N14       29.99R
AKRON          LGT RAIN  52  49  89 VRB3      29.96R
BURLINGTON     TSTM      58  56  93 SW8       29.95R FOG
WRAY           LGT RAIN  55  55 100 NE6       29.91F
YUMA           RAIN      52  52 100 CALM      29.93R
STERLING       RAIN      50  48  93 NE10      29.94R
HOLYOKE        RAIN      59  54  82 NE3       29.95R
FORT MORGAN    CLOUDY    49  43  78 N9        29.96R
$$

COZ086-089-092>099-240000-
...SOUTHEAST COLORADO...

CITY           SKY/WX    TMP DP  RH WIND       PRES   REMARKS
PUEBLO         CLOUDY    64  58  80 E21       29.80S
LA JUNTA       CLOUDY    62  60  93 E17       29.83F
LAMAR          LGT RAIN  62  60  93 CALM      29.87F FOG
SPRINGFIELD      N/A     59  59 100 S7        29.91F
$$



USA.gov is the U.S. government's official web portal to all federal, state and local government web resources and services.